User: anonymous   Login
Location: Nelson
(41.2830°S, 173.2830°E)
Time: 11:35:11
(UTC+12:00)
Language:

Cosmos 1437 Rocket - Orbit

View from above orbital plane
View from above orbital plane
View from above satellite
View from above satellite

Ground track
Ground track

The orbit data is extracted from the following two-line orbital elements,

1 13771U 83003B   21204.14414084  .00000444  00000-0  24337-4 0  9993
2 13771  81.1632  77.3155 0048374  79.7899 280.8778 15.10940710 99742
Epoch (UTC): 23 July 2021 03:27:33
Eccentricity: 0.0048374
inclination: 81.1632°
perigee height: 500 km
apogee height: 567 km
right ascension of ascending node: 77.3155°
argument of perigee: 79.7899°
revolutions per day: 15.10940710
mean anomaly at epoch: 280.8778°
orbit number at epoch: 9974

The dashed part of the orbit path shows where the satellite is in the earth's shadow,  

DLR